Year,Month,Day,Hour,Minute,Value (Times are PST for insolation in W/m^2)
2007,01,28,00,00,0.00
2007,01,28,00,01,0.00
2007,01,28,00,02,0.00
2007,01,28,00,03,0.00
2007,01,28,00,04,0.00
2007,01,28,00,05,0.00
2007,01,28,00,06,0.00
2007,01,28,00,07,0.00
2007,01,28,00,08,0.00
2007,01,28,00,09,0.00
2007,01,28,00,10,0.00
2007,01,28,00,11,0.00
2007,01,28,00,12,0.00
2007,01,28,00,13,0.00
2007,01,28,00,14,0.00
2007,01,28,00,15,0.00
2007,01,28,00,16,0.00
2007,01,28,00,17,0.00
2007,01,28,00,18,0.00
2007,01,28,00,19,0.00
2007,01,28,00,20,0.00
2007,01,28,00,21,0.00
2007,01,28,00,22,0.00
2007,01,28,00,23,0.00
2007,01,28,00,24,0.00
2007,01,28,00,25,0.00
2007,01,28,00,26,0.00
2007,01,28,00,27,0.00
2007,01,28,00,28,0.00
2007,01,28,00,29,0.00
2007,01,28,00,30,0.00
2007,01,28,00,31,0.00
2007,01,28,00,32,0.00
2007,01,28,00,33,0.00
2007,01,28,00,34,0.00
2007,01,28,00,35,0.00
2007,01,28,00,36,0.00
2007,01,28,00,37,0.00
2007,01,28,00,38,0.00
2007,01,28,00,39,0.00
2007,01,28,00,40,0.00
2007,01,28,00,41,0.00
2007,01,28,00,42,0.00
2007,01,28,00,43,0.00
2007,01,28,00,44,0.00
2007,01,28,00,45,0.00
2007,01,28,00,46,0.00
2007,01,28,00,47,0.00
2007,01,28,00,48,0.00
2007,01,28,00,49,0.00
2007,01,28,00,50,0.00
2007,01,28,00,51,0.00
2007,01,28,00,52,0.00
2007,01,28,00,53,0.00
2007,01,28,00,54,0.00
2007,01,28,00,55,0.00
2007,01,28,00,56,0.00
2007,01,28,00,57,0.00
2007,01,28,00,58,0.00
2007,01,28,00,59,0.00
2007,01,28,01,00,0.00
2007,01,28,01,01,0.00
2007,01,28,01,02,0.00
2007,01,28,01,03,0.00
2007,01,28,01,04,0.00
2007,01,28,01,05,0.00
2007,01,28,01,06,0.00
2007,01,28,01,07,0.00
2007,01,28,01,08,0.00
2007,01,28,01,09,0.00
2007,01,28,01,10,0.00
2007,01,28,01,11,0.00
2007,01,28,01,12,0.00
2007,01,28,01,13,0.00
2007,01,28,01,14,0.00
2007,01,28,01,15,0.00
2007,01,28,01,16,0.00
2007,01,28,01,17,0.00
2007,01,28,01,18,0.00
2007,01,28,01,19,0.00
2007,01,28,01,20,0.00
2007,01,28,01,21,0.00
2007,01,28,01,22,0.00
2007,01,28,01,23,0.00
2007,01,28,01,24,0.00
2007,01,28,01,25,0.00
2007,01,28,01,26,0.00
2007,01,28,01,27,0.00
2007,01,28,01,28,0.00
2007,01,28,01,29,0.00
2007,01,28,01,30,0.00
2007,01,28,01,31,0.00
2007,01,28,01,32,0.00
2007,01,28,01,33,0.00
2007,01,28,01,34,0.00
2007,01,28,01,35,0.00
2007,01,28,01,36,0.00
2007,01,28,01,37,0.00
2007,01,28,01,38,0.00
2007,01,28,01,39,0.00
2007,01,28,01,40,0.00
2007,01,28,01,41,0.00
2007,01,28,01,42,0.00
2007,01,28,01,43,0.00
2007,01,28,01,44,0.00
2007,01,28,01,45,0.00
2007,01,28,01,46,0.00
2007,01,28,01,47,0.00
2007,01,28,01,48,0.00
2007,01,28,01,49,0.00
2007,01,28,01,50,0.00
2007,01,28,01,51,0.00
2007,01,28,01,52,0.00
2007,01,28,01,53,0.00
2007,01,28,01,54,0.00
2007,01,28,01,55,0.00
2007,01,28,01,56,0.00
2007,01,28,01,57,0.00
2007,01,28,01,58,0.00
2007,01,28,01,59,0.00
2007,01,28,02,00,0.00
2007,01,28,02,01,0.00
2007,01,28,02,02,0.00
2007,01,28,02,03,0.00
2007,01,28,02,04,0.00
2007,01,28,02,05,0.00
2007,01,28,02,06,0.00
2007,01,28,02,07,0.00
2007,01,28,02,08,0.00
2007,01,28,02,09,0.00
2007,01,28,02,10,0.00
2007,01,28,02,11,0.00
2007,01,28,02,12,0.00
2007,01,28,02,13,0.00
2007,01,28,02,14,0.00
2007,01,28,02,15,0.00
2007,01,28,02,16,0.00
2007,01,28,02,17,0.00
2007,01,28,02,18,0.00
2007,01,28,02,19,0.00
2007,01,28,02,20,0.00
2007,01,28,02,21,0.00
2007,01,28,02,22,0.00
2007,01,28,02,23,0.00
2007,01,28,02,24,0.00
2007,01,28,02,25,0.00
2007,01,28,02,26,0.00
2007,01,28,02,27,0.00
2007,01,28,02,28,0.00
2007,01,28,02,29,0.00
2007,01,28,02,30,0.00
2007,01,28,02,31,0.00
2007,01,28,02,32,0.00
2007,01,28,02,33,0.00
2007,01,28,02,34,0.00
2007,01,28,02,35,0.00
2007,01,28,02,36,0.00
2007,01,28,02,37,0.00
2007,01,28,02,38,0.00
2007,01,28,02,39,0.00
2007,01,28,02,40,0.00
2007,01,28,02,41,0.00
2007,01,28,02,42,0.00
2007,01,28,02,43,0.00
2007,01,28,02,44,0.00
2007,01,28,02,45,0.00
2007,01,28,02,46,0.00
2007,01,28,02,47,0.00
2007,01,28,02,48,0.00
2007,01,28,02,49,0.00
2007,01,28,02,50,0.00
2007,01,28,02,51,0.00
2007,01,28,02,52,0.00
2007,01,28,02,53,0.00
2007,01,28,02,54,0.00
2007,01,28,02,55,0.00
2007,01,28,02,56,0.00
2007,01,28,02,57,0.00
2007,01,28,02,58,0.00
2007,01,28,02,59,0.00
2007,01,28,03,00,0.00
2007,01,28,03,01,0.00
2007,01,28,03,02,0.00
2007,01,28,03,03,0.00
2007,01,28,03,04,0.00
2007,01,28,03,05,0.00
2007,01,28,03,06,0.00
2007,01,28,03,07,0.00
2007,01,28,03,08,0.00
2007,01,28,03,09,0.00
2007,01,28,03,10,0.00
2007,01,28,03,11,0.00
2007,01,28,03,12,0.00
2007,01,28,03,13,0.00
2007,01,28,03,14,0.00
2007,01,28,03,15,0.00
2007,01,28,03,16,0.00
2007,01,28,03,17,0.00
2007,01,28,03,18,0.00
2007,01,28,03,19,0.00
2007,01,28,03,20,0.00
2007,01,28,03,21,0.00
2007,01,28,03,22,0.00
2007,01,28,03,23,0.00
2007,01,28,03,24,0.00
2007,01,28,03,25,0.00
2007,01,28,03,26,0.00
2007,01,28,03,27,0.00
2007,01,28,03,28,0.00
2007,01,28,03,29,0.00
2007,01,28,03,30,0.00
2007,01,28,03,31,0.00
2007,01,28,03,32,0.00
2007,01,28,03,33,0.00
2007,01,28,03,34,0.00
2007,01,28,03,35,0.00
2007,01,28,03,36,0.00
2007,01,28,03,37,0.00
2007,01,28,03,38,0.00
2007,01,28,03,39,0.00
2007,01,28,03,40,0.00
2007,01,28,03,41,0.00
2007,01,28,03,42,0.00
2007,01,28,03,43,0.00
2007,01,28,03,44,0.00
2007,01,28,03,45,0.00
2007,01,28,03,46,0.00
2007,01,28,03,47,0.00
2007,01,28,03,48,0.00
2007,01,28,03,49,0.00
2007,01,28,03,50,0.00
2007,01,28,03,51,0.00
2007,01,28,03,52,0.00
2007,01,28,03,53,0.00
2007,01,28,03,54,0.00
2007,01,28,03,55,0.00
2007,01,28,03,56,0.00
2007,01,28,03,57,0.00
2007,01,28,03,58,0.00
2007,01,28,03,59,0.00
2007,01,28,04,00,0.00
2007,01,28,04,01,0.00
2007,01,28,04,02,0.00
2007,01,28,04,03,0.00
2007,01,28,04,04,0.00
2007,01,28,04,05,0.00
2007,01,28,04,06,0.00
2007,01,28,04,07,0.00
2007,01,28,04,08,0.00
2007,01,28,04,09,0.00
2007,01,28,04,10,0.00
2007,01,28,04,11,0.00
2007,01,28,04,12,0.00
2007,01,28,04,13,0.00
2007,01,28,04,14,0.00
2007,01,28,04,15,0.00
2007,01,28,04,16,0.00
2007,01,28,04,17,0.00
2007,01,28,04,18,0.00
2007,01,28,04,19,0.00
2007,01,28,04,20,0.00
2007,01,28,04,21,0.00
2007,01,28,04,22,0.00
2007,01,28,04,23,0.00
2007,01,28,04,24,0.00
2007,01,28,04,25,0.00
2007,01,28,04,26,0.00
2007,01,28,04,27,0.00
2007,01,28,04,28,0.00
2007,01,28,04,29,0.00
2007,01,28,04,30,0.00
2007,01,28,04,31,0.00
2007,01,28,04,32,0.00
2007,01,28,04,33,0.00
2007,01,28,04,34,0.00
2007,01,28,04,35,0.00
2007,01,28,04,36,0.00
2007,01,28,04,37,0.00
2007,01,28,04,38,0.00
2007,01,28,04,39,0.00
2007,01,28,04,40,0.00
2007,01,28,04,41,0.00
2007,01,28,04,42,0.00
2007,01,28,04,43,0.00
2007,01,28,04,44,0.00
2007,01,28,04,45,0.00
2007,01,28,04,46,0.00
2007,01,28,04,47,0.00
2007,01,28,04,48,0.00
2007,01,28,04,49,0.00
2007,01,28,04,50,0.00
2007,01,28,04,51,0.00
2007,01,28,04,52,0.00
2007,01,28,04,53,0.00
2007,01,28,04,54,0.00
2007,01,28,04,55,0.00
2007,01,28,04,56,0.00
2007,01,28,04,57,0.00
2007,01,28,04,58,0.00
2007,01,28,04,59,0.00
2007,01,28,05,00,0.00
2007,01,28,05,01,0.00
2007,01,28,05,02,0.00
2007,01,28,05,03,0.00
2007,01,28,05,04,0.00
2007,01,28,05,05,0.00
2007,01,28,05,06,0.00
2007,01,28,05,07,0.00
2007,01,28,05,08,0.00
2007,01,28,05,09,0.00
2007,01,28,05,10,0.00
2007,01,28,05,11,0.00
2007,01,28,05,12,0.00
2007,01,28,05,13,0.00
2007,01,28,05,14,0.00
2007,01,28,05,15,0.00
2007,01,28,05,16,0.00
2007,01,28,05,17,0.00
2007,01,28,05,18,0.00
2007,01,28,05,19,0.00
2007,01,28,05,20,0.00
2007,01,28,05,21,0.00
2007,01,28,05,22,0.00
2007,01,28,05,23,0.00
2007,01,28,05,24,0.00
2007,01,28,05,25,0.00
2007,01,28,05,26,0.00
2007,01,28,05,27,0.00
2007,01,28,05,28,0.00
2007,01,28,05,29,0.00
2007,01,28,05,30,0.00
2007,01,28,05,31,0.00
2007,01,28,05,32,0.00
2007,01,28,05,33,0.00
2007,01,28,05,34,0.00
2007,01,28,05,35,0.00
2007,01,28,05,36,0.00
2007,01,28,05,37,0.00
2007,01,28,05,38,0.00
2007,01,28,05,39,0.00
2007,01,28,05,40,0.00
2007,01,28,05,41,0.00
2007,01,28,05,42,0.00
2007,01,28,05,43,0.00
2007,01,28,05,44,0.00
2007,01,28,05,45,0.00
2007,01,28,05,46,0.00
2007,01,28,05,47,0.00
2007,01,28,05,48,0.00
2007,01,28,05,49,0.00
2007,01,28,05,50,0.00
2007,01,28,05,51,0.00
2007,01,28,05,52,0.00
2007,01,28,05,53,0.00
2007,01,28,05,54,0.00
2007,01,28,05,55,0.00
2007,01,28,05,56,0.00
2007,01,28,05,57,0.00
2007,01,28,05,58,0.00
2007,01,28,05,59,0.00
2007,01,28,06,00,0.00
2007,01,28,06,01,0.00
2007,01,28,06,02,0.00
2007,01,28,06,03,0.00
2007,01,28,06,04,0.00
2007,01,28,06,05,0.00
2007,01,28,06,06,0.00
2007,01,28,06,07,0.00
2007,01,28,06,08,0.00
2007,01,28,06,09,0.00
2007,01,28,06,10,0.00
2007,01,28,06,11,0.00
2007,01,28,06,12,0.00
2007,01,28,06,13,0.00
2007,01,28,06,14,0.00
2007,01,28,06,15,0.00
2007,01,28,06,16,0.00
2007,01,28,06,17,0.00
2007,01,28,06,18,0.00
2007,01,28,06,19,0.00
2007,01,28,06,20,0.00
2007,01,28,06,21,0.00
2007,01,28,06,22,0.00
2007,01,28,06,23,0.00
2007,01,28,06,24,0.00
2007,01,28,06,25,0.00
2007,01,28,06,26,0.00
2007,01,28,06,27,0.00
2007,01,28,06,28,0.00
2007,01,28,06,29,0.00
2007,01,28,06,30,0.00
2007,01,28,06,31,0.00
2007,01,28,06,32,0.00
2007,01,28,06,33,0.00
2007,01,28,06,34,0.00
2007,01,28,06,35,0.00
2007,01,28,06,36,0.00
2007,01,28,06,37,0.00
2007,01,28,06,38,0.00
2007,01,28,06,39,0.00
2007,01,28,06,40,0.00
2007,01,28,06,41,0.00
2007,01,28,06,42,0.00
2007,01,28,06,43,0.00
2007,01,28,06,44,0.00
2007,01,28,06,45,0.00
2007,01,28,06,46,0.00
2007,01,28,06,47,0.00
2007,01,28,06,48,0.00
2007,01,28,06,49,0.00
2007,01,28,06,50,0.00
2007,01,28,06,51,0.00
2007,01,28,06,52,0.00
2007,01,28,06,53,0.00
2007,01,28,06,54,0.00
2007,01,28,06,55,0.00
2007,01,28,06,56,0.00
2007,01,28,06,57,0.00
2007,01,28,06,58,0.00
2007,01,28,06,59,0.00
2007,01,28,07,00,0.00
2007,01,28,07,01,0.00
2007,01,28,07,02,0.00
2007,01,28,07,03,0.00
2007,01,28,07,04,0.00
2007,01,28,07,05,0.00
2007,01,28,07,06,0.00
2007,01,28,07,07,0.00
2007,01,28,07,08,0.00
2007,01,28,07,09,0.00
2007,01,28,07,10,0.00
2007,01,28,07,11,0.00
2007,01,28,07,12,0.00
2007,01,28,07,13,0.00
2007,01,28,07,14,0.00
2007,01,28,07,15,0.00
2007,01,28,07,16,0.00
2007,01,28,07,17,0.00
2007,01,28,07,18,0.00
2007,01,28,07,19,0.00
2007,01,28,07,20,0.00
2007,01,28,07,21,0.00
2007,01,28,07,22,0.00
2007,01,28,07,23,0.00
2007,01,28,07,24,0.00
2007,01,28,07,25,0.00
2007,01,28,07,26,0.00
2007,01,28,07,27,0.00
2007,01,28,07,28,0.00
2007,01,28,07,29,0.00
2007,01,28,07,30,0.00
2007,01,28,07,31,0.00
2007,01,28,07,32,0.00
2007,01,28,07,33,0.00
2007,01,28,07,34,0.00
2007,01,28,07,35,0.00
2007,01,28,07,36,0.00
2007,01,28,07,37,0.00
2007,01,28,07,38,0.00
2007,01,28,07,39,0.00
2007,01,28,07,40,0.00
2007,01,28,07,41,0.00
2007,01,28,07,42,0.00
2007,01,28,07,43,0.00
2007,01,28,07,44,0.00
2007,01,28,07,45,0.00
2007,01,28,07,46,0.00
2007,01,28,07,47,4.20
2007,01,28,07,48,5.00
2007,01,28,07,49,5.00
2007,01,28,07,50,5.00
2007,01,28,07,51,5.20
2007,01,28,07,52,7.00
2007,01,28,07,53,7.00
2007,01,28,07,54,7.00
2007,01,28,07,55,7.00
2007,01,28,07,56,7.60
2007,01,28,07,57,9.00
2007,01,28,07,58,9.00
2007,01,28,07,59,9.00
2007,01,28,08,00,9.00
2007,01,28,08,01,10.00
2007,01,28,08,02,11.00
2007,01,28,08,03,11.00
2007,01,28,08,04,11.00
2007,01,28,08,05,11.00
2007,01,28,08,06,11.70
2007,01,28,08,07,12.00
2007,01,28,08,08,12.00
2007,01,28,08,09,12.00
2007,01,28,08,10,12.00
2007,01,28,08,11,13.80
2007,01,28,08,12,14.00
2007,01,28,08,13,14.00
2007,01,28,08,14,14.00
2007,01,28,08,15,14.20
2007,01,28,08,16,16.00
2007,01,28,08,17,16.00
2007,01,28,08,18,16.00
2007,01,28,08,19,16.00
2007,01,28,08,20,16.70
2007,01,28,08,21,18.00
2007,01,28,08,22,18.00
2007,01,28,08,23,18.00
2007,01,28,08,24,18.00
2007,01,28,08,25,18.50
2007,01,28,08,26,19.00
2007,01,28,08,27,19.00
2007,01,28,08,28,19.00
2007,01,28,08,29,19.00
2007,01,28,08,30,20.50
2007,01,28,08,31,21.00
2007,01,28,08,32,21.00
2007,01,28,08,33,21.00
2007,01,28,08,34,21.00
2007,01,28,08,35,21.00
2007,01,28,08,36,23.00
2007,01,28,08,37,23.00
2007,01,28,08,38,23.00
2007,01,28,08,39,23.30
2007,01,28,08,40,25.00
2007,01,28,08,41,25.00
2007,01,28,08,42,25.00
2007,01,28,08,43,25.00
2007,01,28,08,44,25.00
2007,01,28,08,45,25.00
2007,01,28,08,46,25.50
2007,01,28,08,47,27.10
2007,01,28,08,48,28.00
2007,01,28,08,49,28.00
2007,01,28,08,50,31.20
2007,01,28,08,51,31.00
2007,01,28,08,52,27.20
2007,01,28,08,53,27.50
2007,01,28,08,54,31.20
2007,01,28,08,55,30.30
2007,01,28,08,56,30.00
2007,01,28,08,57,30.00
2007,01,28,08,58,33.20
2007,01,28,08,59,41.20
2007,01,28,09,00,64.80
2007,01,28,09,01,97.00
2007,01,28,09,02,143.50
2007,01,28,09,03,170.20
2007,01,28,09,04,174.50
2007,01,28,09,05,176.60
2007,01,28,09,06,178.30
2007,01,28,09,07,179.70
2007,01,28,09,08,182.60
2007,01,28,09,09,185.40
2007,01,28,09,10,187.00
2007,01,28,09,11,189.20
2007,01,28,09,12,191.10
2007,01,28,09,13,193.80
2007,01,28,09,14,195.00
2007,01,28,09,15,197.80
2007,01,28,09,16,199.00
2007,01,28,09,17,201.40
2007,01,28,09,18,203.60
2007,01,28,09,19,205.70
2007,01,28,09,20,206.90
2007,01,28,09,21,208.90
2007,01,28,09,22,211.10
2007,01,28,09,23,213.30
2007,01,28,09,24,216.20
2007,01,28,09,25,218.40
2007,01,28,09,26,221.80
2007,01,28,09,27,225.00
2007,01,28,09,28,227.10
2007,01,28,09,29,233.30
2007,01,28,09,30,236.00
2007,01,28,09,31,236.00
2007,01,28,09,32,236.40
2007,01,28,09,33,237.00
2007,01,28,09,34,237.00
2007,01,28,09,35,237.00
2007,01,28,09,36,238.30
2007,01,28,09,37,240.30
2007,01,28,09,38,241.00
2007,01,28,09,39,242.50
2007,01,28,09,40,243.80
2007,01,28,09,41,245.70
2007,01,28,09,42,247.80
2007,01,28,09,43,249.90
2007,01,28,09,44,250.90
2007,01,28,09,45,253.10
2007,01,28,09,46,255.20
2007,01,28,09,47,257.10
2007,01,28,09,48,258.00
2007,01,28,09,49,258.40
2007,01,28,09,50,261.00
2007,01,28,09,51,264.30
2007,01,28,09,52,265.00
2007,01,28,09,53,265.80
2007,01,28,09,54,267.80
2007,01,28,09,55,270.00
2007,01,28,09,56,271.50
2007,01,28,09,57,272.00
2007,01,28,09,58,273.20
2007,01,28,09,59,276.40
2007,01,28,10,00,278.00
2007,01,28,10,01,278.70
2007,01,28,10,02,280.50
2007,01,28,10,03,281.00
2007,01,28,10,04,282.70
2007,01,28,10,05,286.40
2007,01,28,10,06,287.90
2007,01,28,10,07,288.00
2007,01,28,10,08,290.10
2007,01,28,10,09,292.20
2007,01,28,10,10,294.10
2007,01,28,10,11,295.30
2007,01,28,10,12,297.00
2007,01,28,10,13,298.10
2007,01,28,10,14,301.00
2007,01,28,10,15,301.30
2007,01,28,10,16,302.00
2007,01,28,10,17,303.70
2007,01,28,10,18,306.00
2007,01,28,10,19,307.60
2007,01,28,10,20,310.10
2007,01,28,10,21,312.10
2007,01,28,10,22,313.00
2007,01,28,10,23,314.30
2007,01,28,10,24,315.00
2007,01,28,10,25,315.80
2007,01,28,10,26,316.00
2007,01,28,10,27,317.70
2007,01,28,10,28,319.70
2007,01,28,10,29,321.80
2007,01,28,10,30,323.00
2007,01,28,10,31,323.10
2007,01,28,10,32,325.20
2007,01,28,10,33,327.30
2007,01,28,10,34,329.00
2007,01,28,10,35,329.20
2007,01,28,10,36,330.50
2007,01,28,10,37,332.60
2007,01,28,10,38,334.00
2007,01,28,10,39,334.80
2007,01,28,10,40,336.80
2007,01,28,10,41,338.00
2007,01,28,10,42,338.50
2007,01,28,10,43,340.10
2007,01,28,10,44,342.20
2007,01,28,10,45,343.00
2007,01,28,10,46,344.30
2007,01,28,10,47,345.00
2007,01,28,10,48,345.80
2007,01,28,10,49,347.60
2007,01,28,10,50,349.70
2007,01,28,10,51,350.00
2007,01,28,10,52,351.80
2007,01,28,10,53,352.00
2007,01,28,10,54,353.00
2007,01,28,10,55,353.40
2007,01,28,10,56,357.00
2007,01,28,10,57,357.40
2007,01,28,10,58,359.00
2007,01,28,10,59,359.20
2007,01,28,11,00,360.00
2007,01,28,11,01,360.70
2007,01,28,11,02,362.00
2007,01,28,11,03,362.80
2007,01,28,11,04,364.00
2007,01,28,11,05,365.00
2007,01,28,11,06,366.50
2007,01,28,11,07,367.00
2007,01,28,11,08,368.20
2007,01,28,11,09,369.00
2007,01,28,11,10,370.40
2007,01,28,11,11,371.00
2007,01,28,11,12,372.60
2007,01,28,11,13,373.00
2007,01,28,11,14,373.90
2007,01,28,11,15,374.00
2007,01,28,11,16,375.90
2007,01,28,11,17,376.00
2007,01,28,11,18,376.20
2007,01,28,11,19,378.30
2007,01,28,11,20,380.00
2007,01,28,11,21,380.00
2007,01,28,11,22,380.00
2007,01,28,11,23,380.30
2007,01,28,11,24,380.60
2007,01,28,11,25,380.40
2007,01,28,11,26,381.90
2007,01,28,11,27,383.00
2007,01,28,11,28,383.00
2007,01,28,11,29,384.20
2007,01,28,11,30,385.00
2007,01,28,11,31,385.00
2007,01,28,11,32,385.00
2007,01,28,11,33,385.00
2007,01,28,11,34,386.50
2007,01,28,11,35,387.80
2007,01,28,11,36,389.60
2007,01,28,11,37,390.00
2007,01,28,11,38,391.80
2007,01,28,11,39,393.90
2007,01,28,11,40,394.00
2007,01,28,11,41,394.20
2007,01,28,11,42,396.00
2007,01,28,11,43,396.00
2007,01,28,11,44,396.00
2007,01,28,11,45,396.00
2007,01,28,11,46,396.30
2007,01,28,11,47,397.70
2007,01,28,11,48,399.00
2007,01,28,11,49,399.00
2007,01,28,11,50,399.00
2007,01,28,11,51,399.00
2007,01,28,11,52,400.10
2007,01,28,11,53,401.00
2007,01,28,11,54,401.00
2007,01,28,11,55,402.30
2007,01,28,11,56,401.60
2007,01,28,11,57,401.00
2007,01,28,11,58,401.00
2007,01,28,11,59,403.40
2007,01,28,12,00,404.00
2007,01,28,12,01,404.00
2007,01,28,12,02,405.90
2007,01,28,12,03,408.00
2007,01,28,12,04,408.00
2007,01,28,12,05,408.30
2007,01,28,12,06,409.60
2007,01,28,12,07,408.40
2007,01,28,12,08,410.20
2007,01,28,12,09,411.00
2007,01,28,12,10,411.00
2007,01,28,12,11,412.50
2007,01,28,12,12,415.00
2007,01,28,12,13,414.00
2007,01,28,12,14,413.00
2007,01,28,12,15,415.20
2007,01,28,12,16,418.80
2007,01,28,12,17,420.00
2007,01,28,12,18,418.60
2007,01,28,12,19,418.00
2007,01,28,12,20,409.00
2007,01,28,12,21,403.60
2007,01,28,12,22,399.80
2007,01,28,12,23,399.00
2007,01,28,12,24,402.60
2007,01,28,12,25,404.00
2007,01,28,12,26,406.10
2007,01,28,12,27,409.30
2007,01,28,12,28,422.40
2007,01,28,12,29,424.00
2007,01,28,12,30,421.50
2007,01,28,12,31,425.30
2007,01,28,12,32,422.60
2007,01,28,12,33,424.30
2007,01,28,12,34,411.90
2007,01,28,12,35,411.60
2007,01,28,12,36,420.00
2007,01,28,12,37,423.50
2007,01,28,12,38,429.80
2007,01,28,12,39,429.00
2007,01,28,12,40,432.60
2007,01,28,12,41,432.80
2007,01,28,12,42,419.80
2007,01,28,12,43,413.40
2007,01,28,12,44,400.20
2007,01,28,12,45,361.00
2007,01,28,12,46,396.20
2007,01,28,12,47,416.40
2007,01,28,12,48,424.60
2007,01,28,12,49,416.40
2007,01,28,12,50,400.50
2007,01,28,12,51,369.00
2007,01,28,12,52,371.90
2007,01,28,12,53,391.00
2007,01,28,12,54,404.20
2007,01,28,12,55,413.10
2007,01,28,12,56,425.00
2007,01,28,12,57,431.40
2007,01,28,12,58,437.00
2007,01,28,12,59,421.50
2007,01,28,13,00,405.50
2007,01,28,13,01,410.40
2007,01,28,13,02,417.40
2007,01,28,13,03,410.40
2007,01,28,13,04,400.10
2007,01,28,13,05,388.60
2007,01,28,13,06,393.40
2007,01,28,13,07,404.00
2007,01,28,13,08,406.00
2007,01,28,13,09,410.50
2007,01,28,13,10,382.50
2007,01,28,13,11,380.70
2007,01,28,13,12,393.00
2007,01,28,13,13,366.10
2007,01,28,13,14,301.00
2007,01,28,13,15,280.50
2007,01,28,13,16,261.80
2007,01,28,13,17,238.20
2007,01,28,13,18,245.70
2007,01,28,13,19,285.00
2007,01,28,13,20,305.40
2007,01,28,13,21,343.20
2007,01,28,13,22,350.10
2007,01,28,13,23,350.10
2007,01,28,13,24,354.80
2007,01,28,13,25,370.80
2007,01,28,13,26,383.10
2007,01,28,13,27,387.10
2007,01,28,13,28,390.80
2007,01,28,13,29,404.80
2007,01,28,13,30,412.00
2007,01,28,13,31,414.70
2007,01,28,13,32,423.10
2007,01,28,13,33,424.00
2007,01,28,13,34,430.60
2007,01,28,13,35,427.10
2007,01,28,13,36,429.20
2007,01,28,13,37,431.00
2007,01,28,13,38,428.10
2007,01,28,13,39,410.20
2007,01,28,13,40,401.80
2007,01,28,13,41,375.80
2007,01,28,13,42,387.40
2007,01,28,13,43,405.00
2007,01,28,13,44,413.90
2007,01,28,13,45,414.40
2007,01,28,13,46,395.00
2007,01,28,13,47,370.10
2007,01,28,13,48,303.80
2007,01,28,13,49,273.00
2007,01,28,13,50,273.50
2007,01,28,13,51,254.90
2007,01,28,13,52,239.00
2007,01,28,13,53,249.60
2007,01,28,13,54,265.80
2007,01,28,13,55,269.00
2007,01,28,13,56,275.60
2007,01,28,13,57,276.00
2007,01,28,13,58,310.70
2007,01,28,13,59,301.90
2007,01,28,14,00,304.80
2007,01,28,14,01,340.30
2007,01,28,14,02,350.60
2007,01,28,14,03,358.50
2007,01,28,14,04,359.50
2007,01,28,14,05,365.50
2007,01,28,14,06,362.80
2007,01,28,14,07,360.00
2007,01,28,14,08,354.00
2007,01,28,14,09,352.50
2007,01,28,14,10,342.10
2007,01,28,14,11,334.00
2007,01,28,14,12,337.00
2007,01,28,14,13,343.00
2007,01,28,14,14,345.70
2007,01,28,14,15,343.80
2007,01,28,14,16,344.60
2007,01,28,14,17,341.80
2007,01,28,14,18,339.30
2007,01,28,14,19,345.60
2007,01,28,14,20,345.00
2007,01,28,14,21,344.80
2007,01,28,14,22,341.20
2007,01,28,14,23,343.40
2007,01,28,14,24,346.00
2007,01,28,14,25,346.40
2007,01,28,14,26,348.00
2007,01,28,14,27,348.00
2007,01,28,14,28,348.00
2007,01,28,14,29,348.00
2007,01,28,14,30,347.10
2007,01,28,14,31,346.00
2007,01,28,14,32,345.50
2007,01,28,14,33,343.90
2007,01,28,14,34,344.10
2007,01,28,14,35,345.00
2007,01,28,14,36,343.60
2007,01,28,14,37,341.60
2007,01,28,14,38,341.00
2007,01,28,14,39,338.60
2007,01,28,14,40,319.50
2007,01,28,14,41,289.40
2007,01,28,14,42,258.00
2007,01,28,14,43,248.40
2007,01,28,14,44,259.30
2007,01,28,14,45,246.00
2007,01,28,14,46,254.20
2007,01,28,14,47,303.70
2007,01,28,14,48,317.40
2007,01,28,14,49,313.20
2007,01,28,14,50,311.60
2007,01,28,14,51,319.30
2007,01,28,14,52,315.40
2007,01,28,14,53,309.00
2007,01,28,14,54,306.90
2007,01,28,14,55,307.00
2007,01,28,14,56,303.90
2007,01,28,14,57,300.30
2007,01,28,14,58,288.60
2007,01,28,14,59,275.50
2007,01,28,15,00,274.80
2007,01,28,15,01,269.20
2007,01,28,15,02,259.10
2007,01,28,15,03,238.60
2007,01,28,15,04,198.30
2007,01,28,15,05,150.20
2007,01,28,15,06,139.00
2007,01,28,15,07,113.40
2007,01,28,15,08,102.70
2007,01,28,15,09,110.30
2007,01,28,15,10,115.20
2007,01,28,15,11,102.70
2007,01,28,15,12,99.80
2007,01,28,15,13,105.00
2007,01,28,15,14,120.00
2007,01,28,15,15,171.80
2007,01,28,15,16,219.60
2007,01,28,15,17,211.30
2007,01,28,15,18,159.50
2007,01,28,15,19,133.30
2007,01,28,15,20,116.70
2007,01,28,15,21,114.00
2007,01,28,15,22,114.00
2007,01,28,15,23,110.50
2007,01,28,15,24,112.20
2007,01,28,15,25,122.00
2007,01,28,15,26,126.60
2007,01,28,15,27,133.30
2007,01,28,15,28,143.00
2007,01,28,15,29,132.60
2007,01,28,15,30,124.80
2007,01,28,15,31,120.10
2007,01,28,15,32,121.60
2007,01,28,15,33,126.40
2007,01,28,15,34,134.00
2007,01,28,15,35,135.80
2007,01,28,15,36,144.00
2007,01,28,15,37,160.80
2007,01,28,15,38,188.20
2007,01,28,15,39,201.10
2007,01,28,15,40,196.20
2007,01,28,15,41,188.50
2007,01,28,15,42,182.70
2007,01,28,15,43,181.00
2007,01,28,15,44,177.80
2007,01,28,15,45,174.70
2007,01,28,15,46,185.20
2007,01,28,15,47,205.80
2007,01,28,15,48,223.60
2007,01,28,15,49,228.60
2007,01,28,15,50,227.20
2007,01,28,15,51,225.20
2007,01,28,15,52,223.00
2007,01,28,15,53,219.90
2007,01,28,15,54,217.60
2007,01,28,15,55,213.60
2007,01,28,15,56,210.60
2007,01,28,15,57,208.40
2007,01,28,15,58,205.00
2007,01,28,15,59,200.80
2007,01,28,16,00,196.30
2007,01,28,16,01,193.90
2007,01,28,16,02,190.40
2007,01,28,16,03,183.90
2007,01,28,16,04,176.50
2007,01,28,16,05,169.10
2007,01,28,16,06,159.00
2007,01,28,16,07,151.40
2007,01,28,16,08,151.60
2007,01,28,16,09,134.40
2007,01,28,16,10,101.10
2007,01,28,16,11,90.60
2007,01,28,16,12,90.00
2007,01,28,16,13,88.30
2007,01,28,16,14,78.00
2007,01,28,16,15,69.40
2007,01,28,16,16,64.90
2007,01,28,16,17,62.90
2007,01,28,16,18,61.40
2007,01,28,16,19,57.60
2007,01,28,16,20,55.60
2007,01,28,16,21,54.00
2007,01,28,16,22,53.70
2007,01,28,16,23,53.00
2007,01,28,16,24,51.50
2007,01,28,16,25,49.00
2007,01,28,16,26,49.00
2007,01,28,16,27,49.00
2007,01,28,16,28,49.00
2007,01,28,16,29,47.90
2007,01,28,16,30,47.00
2007,01,28,16,31,47.00
2007,01,28,16,32,46.30
2007,01,28,16,33,44.50
2007,01,28,16,34,44.00
2007,01,28,16,35,44.00
2007,01,28,16,36,42.30
2007,01,28,16,37,42.00
2007,01,28,16,38,40.10
2007,01,28,16,39,40.00
2007,01,28,16,40,39.00
2007,01,28,16,41,38.70
2007,01,28,16,42,36.60
2007,01,28,16,43,35.00
2007,01,28,16,44,34.50
2007,01,28,16,45,32.70
2007,01,28,16,46,31.30
2007,01,28,16,47,30.00
2007,01,28,16,48,29.20
2007,01,28,16,49,27.00
2007,01,28,16,50,25.50
2007,01,28,16,51,23.90
2007,01,28,16,52,21.90
2007,01,28,16,53,21.00
2007,01,28,16,54,19.60
2007,01,28,16,55,18.30
2007,01,28,16,56,16.50
2007,01,28,16,57,16.00
2007,01,28,16,58,14.30
2007,01,28,16,59,14.00
2007,01,28,17,00,12.20
2007,01,28,17,01,12.00
2007,01,28,17,02,11.00
2007,01,28,17,03,10.80
2007,01,28,17,04,8.70
2007,01,28,17,05,7.00
2007,01,28,17,06,7.00
2007,01,28,17,07,7.00
2007,01,28,17,08,7.00
2007,01,28,17,09,6.30
2007,01,28,17,10,5.00
2007,01,28,17,11,5.00
2007,01,28,17,12,5.00
2007,01,28,17,13,2.50
2007,01,28,17,14,0.00
2007,01,28,17,15,0.00
2007,01,28,17,16,0.00
2007,01,28,17,17,0.00
2007,01,28,17,18,0.00
2007,01,28,17,19,0.00
2007,01,28,17,20,0.00
2007,01,28,17,21,0.00
2007,01,28,17,22,0.00